Location: ShareBrained
(45.5589°N, 122.6491°W)
Time: 01:14:37
(UTC-08:00)

NOAA 19 - Pass Details

Date: 30 September 2023
Orbit: 839 x 860 km, 99.1° (Epoch: 08 December)

Event Time Altitude Azimuth Distance (km) Brightness Sun altitude
Exits shadow 20:18:50 24° 97° (E) 1,681 6.1 -15.8°
Maximum altitude 20:20:45 30° 63° (ENE) 1,479 6.1 -16.1°
Drops below altitude 10° 20:25:30 10° 4° (N) 2,498 7.8 -17.0°
Sets 20:28:07 0° 354° (N) 3,442 8.6 -17.4°
